Terminal Aerodrome Forecast
Issued by NWS

Home | Current Version | Previous Version | Text Only | Print | Product List | Glossary On
Versions: 1 2 3 4 5 6 7 8 9 10 11 12 13 14
563
FTPA31 PHFO 181727
TAFHTO
TAF
PHTO 181727Z 1818/1918 28006KT P6SM VCSH SCT020 OVC060
      TEMPO 1818/1820 5SM -SHRA BKN020
     FM182000 03011G18KT P6SM VCSH SCT025 BKN060
     FM190500 24007KT P6SM VCSH SCT025 BKN060=

USA.gov is the U.S. government's official web portal to all federal, state and local government web resources and services.